ORBCOMM FM110

Last updated on Wed Sep 23 2026 00:03:43 GMT+0000 (Coordinated Universal Time)

1 41182U 15081D 26265.00731080 .00000272 00000+0 93505-4 0 9997 2 41182 47.0012 263.6032 0002478 186.4983 173.5871 14.58994582571767
UTC large
Height (km)
Speed (km/s)
/
Latitude / Longitude
Inclination (degrees)
Orbital Period (minutes)
Azimuth
Elevation
Range (km)
Doppler Factor

Next 0 passes for location: London (51.5072 / 0.1276)

No passes found over London.
ORBCOMM FM110